Regional Weather Roundup
Issued by NWS Little Rock, AR

Home | Current Version | Previous Version | Graphics & Text | Print | Product List | Glossary On
Versions: 1 2 3 4 5 6 7 8 9 10 11 12 13 14 15 16 17 18 19 20 21 22 23 24 25 26 27 28 29 30 31 32 33 34 35 36 37 38 39 40 41 42 43 44 45 46 47 48 49 50
000
ASUS44 KLZK 300905
RWRLZK

WEATHER ROUNDUP FOR ARKANSAS
NATIONAL WEATHER SERVICE LITTLE ROCK AR
400 AM CDT WED JUL 30 2014

NOTE: "FAIR" INDICATES FEW OR NO CLOUDS BELOW 12,000 FEET WITH NO
SIGNIFICANT WEATHER AND/OR OBSTRUCTIONS TO VISIBILITY.

ARZ001-003-010-029-301000-
NORTHWEST ARKANSAS

CITY           SKY/WX    TMP DP  RH WIND       PRES   REMARKS
FAYETTEVILLE   MOCLDY    63  62  97 CALM      30.09S
FORT SMITH     CLOUDY    73  68  84 E6        30.05S
HARRISON       MOCLDY    65  62  90 CALM      30.09F
BENTONVILLE    MOCLDY    68  61  77 CALM      30.09F
ROGERS         CLOUDY    68  64  87 E3        30.10F
SILOAM SPGS    MOCLDY    66  57  72 E3        30.09S
HIGHFILL       CLOUDY    67  63  87 CALM      30.08F
$$

ARZ004-005-016-301000-
NORTH CENTRAL ARKANSAS

CITY           SKY/WX    TMP DP  RH WIND       PRES   REMARKS
BATESVILLE     PTCLDY    66  57  72 CALM      30.10R
FLIPPIN        PTCLDY    64  59  82 CALM      30.08S
MTN HOME       PTCLDY    64  60  87 S3        30.08S
$$

ARZ040-041-301000-
WEST CENTRAL ARKANSAS

CITY           SKY/WX    TMP DP  RH WIND       PRES   REMARKS
MENA           CLOUDY    70  68  94 CALM      30.11R
MOUNT IDA      CLOUDY    68  66  93 CALM      30.07S
$$

ARZ009-017-025-026-028-301000-
NORTHEAST ARKANSAS

CITY           SKY/WX    TMP DP  RH WIND       PRES   REMARKS
CORNING        FAIR      63  61  94 W3        30.09S
JONESBORO      CLEAR     60  58  92 CALM      30.09S
NEWPORT        CLEAR     65  63  93 SE3       30.10S
WALNUT RIDGE   CLEAR     64  57  77 CALM      30.08S
BLYTHEVILLE    CLEAR     61  58  90 CALM      30.09S
$$

ARZ022-023-033-042-044-301000-
CENTRAL ARKANSAS

CITY           SKY/WX    TMP DP  RH WIND       PRES   REMARKS
LITTLE ROCK    MOCLDY    68  62  81 CALM      30.09S
N LITTLE ROCK    N/A     69  62  78 S6        30.09S
JACKSONVILLE   CLEAR     64  61  92 NE2       30.09S
SEARCY         PTCLDY    63  62  96 CALM      30.11R
HOT SPRINGS    MOCLDY    69  62  78 E5        30.10R
RUSSELLVILLE   MOCLDY    69  64  84 CALM      30.08R
CLINTON        FAIR      63  63 100 CALM      30.11R
$$

ARZ036-301000-
EAST ARKANSAS

CITY           SKY/WX    TMP DP  RH WIND       PRES   REMARKS
WEST MEMPHIS   CLEAR     61  60  97 CALM      30.08S
$$

ARZ050-053-066-070-073-301000-
SOUTHWEST ARKANSAS

CITY           SKY/WX    TMP DP  RH WIND       PRES   REMARKS
ARKADELPHIA    FAIR      68  67  96 CALM      30.09R
CAMDEN         PTCLDY    64  59  82 CALM      30.08R
TEXARKANA      MOCLDY    71  63  75 SE8       30.07S
EL DORADO      CLEAR     66  61  84 CALM      30.08S
DE QUEEN       MOCLDY    70  69  97 CALM      30.06R
$$

ARZ056-057-069-301000-
SOUTHEAST ARKANSAS

CITY           SKY/WX    TMP DP  RH WIND       PRES   REMARKS
PINE BLUFF     PTCLDY    65  62  90 CALM      30.09S
STUTTGART      PTCLDY    68  61  77 SE3       30.09F
MONTICELLO     MOCLDY    67  60  78 CALM      30.08S

$$





USA.gov is the U.S. government's official web portal to all federal, state and local government web resources and services.